Aeroporto :
LOGIN :

Iscrizione | Disclaimer

   EN    FR    IT 

 










Sommario :    VFR   VFR Marginale   IFR   IFR Intensivo   IFR Molto Intensivo
Visibilità : 
Base nubi : 
>= 8 km
>= 3000ft
5 / 8 km
1000 / 3000 ft
1500m / 5 km
500 / 1000 ft
800 / 1500m
200 / 500 ft
< 800m
< 200 ft
Simboli :   Temporali  Nebbia  Neve Forte  Precipitazioni Forti  Vento > 20 kt
SIGMETs :   Varie  Temporali  Ghiacco  Turbolenza  Onda orograficha  Ceneri Vulcaniche







- Altitudine del aeroporto : 55 ft
- Codice IATA : DSA
- Carte del aeroporto


EGCN - Robin Hood Doncaster Sheffield

ULTIMO METAR :
  • 190920Z 18005KT 6000 RA BKN007 07/07 Q1002

METARs OBSOLETI :
  • 190850Z 16006KT 8000 BKN008 07/07 Q1002
  • 190820Z 18003KT 6000 BKN005 06/06 Q1002
  • 190750Z 17006KT 6000 BKN006 06/06 Q1002
  • 190720Z 17008KT 7000 BKN006 06/06 Q1002
  • 190650Z 18009KT 9999 BKN006 OVC010 07/07 Q1001

TAF AMD TAF EGCN
Valido dal 19 a 09 ore il 20 a 06 ore UTC


190925Z 1909/2006 18009KT 7000 BKN008
BECMG 1909/1911 9999 FEW030
TEMPO 1909/1911 SHRA
PROB30
TEMPO 1917/2006 6000 SHRA BKN014
Nessun NOTAM noto per questo aeroporto.



MetMap, La meteo Aeronautica in un colpo d'occhio ! - Copyright ORBIFLY Dicembre 2007 - Disclaimer

ORBIFLY MET'MAP TEAM :

Programmazione e sviluppo : Alexandra Zaïnal
Concezione e sviluppo : Baudouin d'Aumeries
Co-Programmazione e sviluppo : Marc-Olivier Méhu
Supporto tecnico e logistico : Manuel Goepfert
Aiuto per la traduzione : Arnaldo La Scala

Contatto : metmap@orbifly.com




FONTI E CREDITI :

   NOAA